Time,TemperatureF,DewpointF,PressureIn,WindDirection,WindDirectionDegrees,WindSpeedMPH,WindSpeedGustMPH,Humidity,HourlyPrecipIn,Conditions,Clouds,dailyrainin,SoftwareType,DateUTC
2013-07-24 00:11:00,64.0,57.0,29.85,North,349,2.0,9.0,78,0.00,,,0.00,,2013-07-24 04:11:00,
2013-07-24 00:32:00,63.0,56.0,29.87,NNE,14,1.0,9.0,79,0.00,,,0.00,,2013-07-24 04:32:00,
2013-07-24 00:43:00,63.0,56.0,29.88,NW,314,4.0,9.0,79,0.00,,,0.00,,2013-07-24 04:43:00,
2013-07-24 00:53:00,62.0,55.0,29.89,NNW,344,4.0,11.0,78,0.00,,,0.00,,2013-07-24 04:53:00,
2013-07-24 01:02:00,62.0,55.0,29.89,NNW,344,4.0,11.0,78,0.00,,,0.00,,2013-07-24 05:02:00,
2013-07-24 01:11:00,61.0,53.0,29.90,North,9,2.0,9.0,76,0.00,,,0.00,,2013-07-24 05:11:00,
2013-07-24 01:22:00,60.0,53.0,29.90,North,360,3.0,8.0,77,0.00,,,0.00,,2013-07-24 05:22:00,
2013-07-24 01:43:00,59.0,52.0,29.91,North,355,3.0,9.0,78,0.00,,,0.00,,2013-07-24 05:43:00,
2013-07-24 01:52:00,59.0,52.0,29.91,NNE,15,6.0,13.0,78,0.00,,,0.00,,2013-07-24 05:52:00,
2013-07-24 02:01:00,58.0,52.0,29.91,NNW,327,2.0,10.0,79,0.00,,,0.00,,2013-07-24 06:01:00,
2013-07-24 02:12:00,58.0,52.0,29.91,NNW,327,2.0,10.0,79,0.00,,,0.00,,2013-07-24 06:12:00,
2013-07-24 02:24:00,58.0,52.0,29.91,WNW,288,2.0,7.0,80,0.00,,,0.00,,2013-07-24 06:24:00,
2013-07-24 02:34:00,58.0,52.0,29.91,WNW,288,2.0,7.0,80,0.00,,,0.00,,2013-07-24 06:34:00,
2013-07-24 02:43:00,57.0,51.0,29.90,North,5,2.0,12.0,81,0.00,,,0.00,,2013-07-24 06:43:00,
2013-07-24 02:53:00,57.0,52.0,29.91,North,5,0.0,4.0,82,0.00,,,0.00,,2013-07-24 06:53:00,
2013-07-24 03:02:00,56.0,51.0,29.91,North,351,0.0,6.0,84,0.00,,,0.00,,2013-07-24 07:02:00,
2013-07-24 03:12:00,56.0,51.0,29.91,North,351,0.0,6.0,84,0.00,,,0.00,,2013-07-24 07:12:00,
2013-07-24 03:22:00,56.0,52.0,29.91,NW,317,0.0,4.0,85,0.00,,,0.00,,2013-07-24 07:22:00,
2013-07-24 03:32:00,56.0,52.0,29.91,North,350,0.0,5.0,86,0.00,,,0.00,,2013-07-24 07:32:00,
2013-07-24 03:43:00,56.0,52.0,29.91,North,350,0.0,5.0,86,0.00,,,0.00,,2013-07-24 07:43:00,
2013-07-24 03:53:00,55.0,51.0,29.91,NNW,346,0.0,7.0,87,0.00,,,0.00,,2013-07-24 07:53:00,
2013-07-24 04:02:00,55.0,51.0,29.91,NW,313,0.0,7.0,87,0.00,,,0.00,,2013-07-24 08:02:00,
2013-07-24 04:12:00,55.0,51.0,29.91,NW,313,0.0,7.0,87,0.00,,,0.00,,2013-07-24 08:12:00,
2013-07-24 04:22:00,55.0,52.0,29.91,NNW,344,0.0,2.0,88,0.00,,,0.00,,2013-07-24 08:22:00,
2013-07-24 04:32:00,55.0,51.0,29.91,West,269,1.0,6.0,87,0.00,,,0.00,,2013-07-24 08:32:00,
2013-07-24 04:43:00,55.0,51.0,29.91,West,269,1.0,6.0,87,0.00,,,0.00,,2013-07-24 08:43:00,
2013-07-24 04:52:00,55.0,52.0,29.92,West,260,0.0,4.0,88,0.00,,,0.00,,2013-07-24 08:52:00,
2013-07-24 05:02:00,54.0,51.0,29.92,West,280,0.0,6.0,88,0.00,,,0.00,,2013-07-24 09:02:00,
2013-07-24 05:12:00,54.0,51.0,29.92,West,280,0.0,6.0,88,0.00,,,0.00,,2013-07-24 09:12:00,
2013-07-24 05:32:00,54.0,51.0,29.93,NNW,346,0.0,3.0,88,0.00,,,0.00,,2013-07-24 09:32:00,
2013-07-24 05:43:00,54.0,51.0,29.93,West,261,0.0,1.0,89,0.00,,,0.00,,2013-07-24 09:43:00,
2013-07-24 05:53:00,54.0,51.0,29.94,West,262,0.0,3.0,90,0.00,,,0.00,,2013-07-24 09:53:00,
2013-07-24 06:02:00,54.0,51.0,29.94,West,262,0.0,2.0,90,0.00,,,0.00,,2013-07-24 10:02:00,
2013-07-24 06:12:00,54.0,51.0,29.94,West,262,0.0,2.0,90,0.00,,,0.00,,2013-07-24 10:12:00,
2013-07-24 06:33:00,53.0,50.0,29.95,West,262,0.0,2.0,91,0.00,,,0.00,,2013-07-24 10:33:00,
2013-07-24 06:43:00,53.0,50.0,29.95,West,264,0.0,2.0,91,0.00,,,0.00,,2013-07-24 10:43:00,
2013-07-24 06:53:00,53.0,50.0,29.96,West,273,0.0,3.0,91,0.00,,,0.00,,2013-07-24 10:53:00,
2013-07-24 07:02:00,53.0,50.0,29.96,West,273,0.0,3.0,91,0.00,,,0.00,,2013-07-24 11:02:00,
2013-07-24 07:12:00,53.0,51.0,29.97,NW,320,0.0,3.0,92,0.00,,,0.00,,2013-07-24 11:12:00,
2013-07-24 07:22:00,53.0,51.0,29.97,NNW,348,1.0,6.0,92,0.00,,,0.00,,2013-07-24 11:22:00,
2013-07-24 07:43:00,53.0,50.0,29.97,WNW,292,1.0,6.0,90,0.00,,,0.00,,2013-07-24 11:43:00,
2013-07-24 08:02:00,54.0,51.0,29.98,NE,45,1.0,7.0,89,0.00,,,0.00,,2013-07-24 12:02:00,
2013-07-24 08:12:00,55.0,51.0,29.99,NNW,346,1.0,8.0,87,0.00,,,0.00,,2013-07-24 12:12:00,
2013-07-24 08:32:00,56.0,51.0,29.99,NNW,337,2.0,8.0,84,0.00,,,0.00,,2013-07-24 12:32:00,
2013-07-24 08:42:00,57.0,51.0,29.99,NE,55,2.0,9.0,81,0.00,,,0.00,,2013-07-24 12:42:00,
2013-07-24 08:52:00,59.0,52.0,29.99,NE,35,5.0,11.0,78,0.00,,,0.00,,2013-07-24 12:52:00,
2013-07-24 09:02:00,59.0,52.0,29.99,NE,35,5.0,11.0,78,0.00,,,0.00,,2013-07-24 13:02:00,
2013-07-24 09:12:00,60.0,53.0,29.99,NNE,13,3.0,8.0,77,0.00,,,0.00,,2013-07-24 13:12:00,
2013-07-24 09:32:00,61.0,52.0,29.99,NNW,338,4.0,12.0,73,0.00,,,0.00,,2013-07-24 13:32:00,
2013-07-24 09:43:00,62.0,53.0,29.98,North,355,3.0,8.0,73,0.00,,,0.00,,2013-07-24 13:43:00,
2013-07-24 09:53:00,63.0,54.0,29.99,NNW,343,4.0,10.0,72,0.00,,,0.00,,2013-07-24 13:53:00,
2013-07-24 10:02:00,64.0,55.0,29.99,North,355,3.0,7.0,72,0.00,,,0.00,,2013-07-24 14:02:00,
2013-07-24 10:12:00,64.0,55.0,29.99,North,355,3.0,7.0,72,0.00,,,0.00,,2013-07-24 14:12:00,
2013-07-24 10:22:00,64.0,53.0,29.99,NNE,14,4.0,11.0,67,0.00,,,0.00,,2013-07-24 14:22:00,
2013-07-24 10:32:00,65.0,54.0,30.00,North,360,4.0,10.0,67,0.00,,,0.00,,2013-07-24 14:32:00,
2013-07-24 10:43:00,65.0,54.0,30.00,North,360,4.0,10.0,67,0.00,,,0.00,,2013-07-24 14:43:00,
2013-07-24 10:55:00,66.0,55.0,30.00,NE,50,2.0,11.0,67,0.00,,,0.00,,2013-07-24 14:55:00,
2013-07-24 11:02:00,66.0,54.0,30.00,NE,40,3.0,7.0,66,0.00,,,0.00,,2013-07-24 15:02:00,
2013-07-24 11:12:00,66.0,54.0,30.00,NE,40,3.0,7.0,66,0.00,,,0.00,,2013-07-24 15:12:00,
2013-07-24 11:22:00,67.0,55.0,30.01,NNE,29,0.0,7.0,66,0.00,,,0.00,,2013-07-24 15:22:00,
2013-07-24 11:33:00,66.0,54.0,30.00,NNW,330,3.0,6.0,65,0.00,,,0.00,,2013-07-24 15:33:00,
2013-07-24 11:43:00,66.0,54.0,30.00,NNW,330,3.0,6.0,65,0.00,,,0.00,,2013-07-24 15:43:00,
2013-07-24 11:53:00,67.0,55.0,30.00,ENE,71,2.0,9.0,66,0.00,,,0.00,,2013-07-24 15:53:00,
2013-07-24 12:02:00,68.0,56.0,30.01,NNE,17,2.0,10.0,66,0.00,,,0.00,,2013-07-24 16:02:00,
2013-07-24 12:12:00,68.0,56.0,30.01,NNE,17,2.0,10.0,66,0.00,,,0.00,,2013-07-24 16:12:00,
2013-07-24 12:22:00,69.0,55.0,30.01,NNE,13,2.0,10.0,60,0.00,,,0.00,,2013-07-24 16:22:00,
2013-07-24 12:32:00,69.0,55.0,30.01,NE,55,3.0,7.0,61,0.00,,,0.00,,2013-07-24 16:32:00,
2013-07-24 12:43:00,69.0,55.0,30.01,NE,55,3.0,7.0,61,0.00,,,0.00,,2013-07-24 16:43:00,
2013-07-24 12:53:00,70.0,53.0,30.01,North,11,4.0,9.0,55,0.00,,,0.00,,2013-07-24 16:53:00,
2013-07-24 13:02:00,70.0,55.0,30.02,North,9,3.0,8.0,58,0.00,,,0.00,,2013-07-24 17:02:00,
2013-07-24 13:12:00,70.0,55.0,30.02,North,9,3.0,8.0,58,0.00,,,0.00,,2013-07-24 17:12:00,
2013-07-24 13:22:00,71.0,54.0,30.02,North,9,2.0,9.0,56,0.00,,,0.00,,2013-07-24 17:22:00,
2013-07-24 13:33:00,71.0,55.0,30.02,North,350,2.0,7.0,57,0.00,,,0.00,,2013-07-24 17:33:00,
2013-07-24 13:43:00,71.0,55.0,30.02,North,350,2.0,7.0,57,0.00,,,0.00,,2013-07-24 17:43:00,
2013-07-24 13:53:00,70.0,55.0,30.01,ENE,64,1.0,6.0,58,0.00,,,0.00,,2013-07-24 17:53:00,
2013-07-24 14:02:00,71.0,55.0,30.01,North,360,4.0,9.0,58,0.00,,,0.00,,2013-07-24 18:02:00,
2013-07-24 14:12:00,71.0,55.0,30.01,North,360,4.0,9.0,58,0.00,,,0.00,,2013-07-24 18:12:00,
2013-07-24 14:22:00,71.0,55.0,30.00,NE,46,2.0,10.0,57,0.00,,,0.00,,2013-07-24 18:22:00,
2013-07-24 14:33:00,72.0,55.0,30.00,East,99,1.0,10.0,56,0.00,,,0.00,,2013-07-24 18:33:00,
2013-07-24 14:43:00,72.0,55.0,30.00,East,99,1.0,10.0,56,0.00,,,0.00,,2013-07-24 18:43:00,
2013-07-24 14:52:00,71.0,56.0,30.00,NNE,19,3.0,9.0,60,0.00,,,0.00,,2013-07-24 18:52:00,
2013-07-24 15:02:00,71.0,56.0,30.00,NNE,19,3.0,9.0,60,0.00,,,0.00,,2013-07-24 19:02:00,
2013-07-24 15:12:00,71.0,54.0,30.00,ENE,61,2.0,9.0,56,0.00,,,0.00,,2013-07-24 19:12:00,
2013-07-24 15:32:00,72.0,55.0,29.99,ESE,107,1.0,7.0,56,0.00,,,0.00,,2013-07-24 19:32:00,
2013-07-24 15:43:00,72.0,56.0,29.99,NE,38,1.0,7.0,57,0.00,,,0.00,,2013-07-24 19:43:00,
2013-07-24 15:53:00,73.0,56.0,30.00,ENE,69,2.0,7.0,56,0.00,,,0.00,,2013-07-24 19:53:00,
2013-07-24 16:13:00,72.0,56.0,30.00,North,360,2.0,8.0,57,0.00,,,0.00,,2013-07-24 20:13:00,
2013-07-24 16:23:00,73.0,56.0,29.99,South,170,1.0,5.0,56,0.00,,,0.00,,2013-07-24 20:23:00,
2013-07-24 16:32:00,72.0,55.0,29.99,NNW,340,1.0,5.0,56,0.00,,,0.00,,2013-07-24 20:32:00,
2013-07-24 16:43:00,72.0,55.0,29.99,NNW,340,1.0,5.0,56,0.00,,,0.00,,2013-07-24 20:43:00,
2013-07-24 16:53:00,72.0,56.0,29.99,NE,34,1.0,5.0,57,0.00,,,0.00,,2013-07-24 20:53:00,
2013-07-24 17:03:00,72.0,56.0,29.99,NE,34,1.0,5.0,57,0.00,,,0.00,,2013-07-24 21:03:00,
2013-07-24 17:22:00,74.0,55.0,29.99,East,80,3.0,6.0,52,0.00,,,0.00,,2013-07-24 21:22:00,
2013-07-24 17:32:00,74.0,55.0,29.99,East,80,3.0,6.0,52,0.00,,,0.00,,2013-07-24 21:32:00,
2013-07-24 17:44:00,72.0,56.0,29.99,ENE,71,0.0,5.0,57,0.00,,,0.00,,2013-07-24 21:44:00,
2013-07-24 17:53:00,73.0,56.0,29.99,NNE,20,3.0,6.0,56,0.00,,,0.00,,2013-07-24 21:53:00,
2013-07-24 18:02:00,73.0,56.0,29.99,NNE,20,3.0,6.0,56,0.00,,,0.00,,2013-07-24 22:02:00,
2013-07-24 18:12:00,72.0,56.0,29.98,ENE,66,1.0,7.0,57,0.00,,,0.00,,2013-07-24 22:12:00,
2013-07-24 18:22:00,72.0,56.0,29.98,North,350,0.0,4.0,57,0.00,,,0.00,,2013-07-24 22:22:00,
2013-07-24 18:32:00,72.0,56.0,29.98,North,350,0.0,4.0,57,0.00,,,0.00,,2013-07-24 22:32:00,
2013-07-24 18:43:00,72.0,55.0,29.98,ENE,63,1.0,7.0,55,0.00,,,0.00,,2013-07-24 22:43:00,
2013-07-24 18:53:00,71.0,55.0,29.99,NNE,22,0.0,4.0,57,0.00,,,0.00,,2013-07-24 22:53:00,
2013-07-24 19:02:00,71.0,55.0,29.99,NNE,22,0.0,4.0,57,0.00,,,0.00,,2013-07-24 23:02:00,
2013-07-24 19:12:00,71.0,58.0,29.99,ENE,65,0.0,3.0,63,0.00,,,0.00,,2013-07-24 23:12:00,
2013-07-24 19:22:00,71.0,56.0,29.99,NNE,24,1.0,9.0,59,0.00,,,0.00,,2013-07-24 23:22:00,
2013-07-24 19:32:00,69.0,56.0,29.99,ENE,65,0.0,2.0,63,0.00,,,0.00,,2013-07-24 23:32:00,
2013-07-24 19:43:00,69.0,56.0,29.99,ENE,65,0.0,2.0,63,0.00,,,0.00,,2013-07-24 23:43:00,
2013-07-24 19:52:00,68.0,57.0,29.99,ENE,61,0.0,2.0,68,0.00,,,0.00,,2013-07-24 23:52:00,
2013-07-24 20:02:00,68.0,57.0,29.99,ENE,61,0.0,2.0,68,0.00,,,0.00,,2013-07-25 00:02:00,
2013-07-24 20:22:00,68.0,56.0,30.00,ENE,60,0.0,1.0,66,0.00,,,0.00,,2013-07-25 00:22:00,
2013-07-24 20:43:00,67.0,59.0,30.01,ENE,60,0.0,0.0,75,0.00,,,0.00,,2013-07-25 00:43:00,
2013-07-24 20:53:00,65.0,58.0,30.01,ENE,60,0.0,0.0,79,0.00,,,0.00,,2013-07-25 00:53:00,
2013-07-24 21:02:00,64.0,58.0,30.01,ENE,60,0.0,0.0,81,0.00,,,0.00,,2013-07-25 01:02:00,
2013-07-24 21:12:00,64.0,58.0,30.01,ENE,60,0.0,0.0,81,0.00,,,0.00,,2013-07-25 01:12:00,
2013-07-24 21:32:00,63.0,58.0,30.01,ENE,60,0.0,0.0,84,0.00,,,0.00,,2013-07-25 01:32:00,
2013-07-24 21:53:00,61.0,57.0,30.01,ENE,60,0.0,0.0,87,0.00,,,0.00,,2013-07-25 01:53:00,
2013-07-24 22:02:00,61.0,57.0,30.01,ENE,60,0.0,0.0,87,0.00,,,0.00,,2013-07-25 02:02:00,
2013-07-24 22:22:00,61.0,58.0,30.01,ENE,60,0.0,0.0,89,0.00,,,0.00,,2013-07-25 02:22:00,
2013-07-24 22:33:00,60.0,57.0,30.02,ESE,122,0.0,3.0,90,0.00,,,0.00,,2013-07-25 02:33:00,
2013-07-24 23:02:00,59.0,57.0,30.02,ESE,122,0.0,0.0,92,0.00,,,0.00,,2013-07-25 03:02:00,
2013-07-24 23:16:00,59.0,57.0,30.02,ESE,122,0.0,0.0,93,0.00,,,0.00,,2013-07-25 03:16:00,
2013-07-24 23:38:00,59.0,57.0,30.03,ESE,122,0.0,0.0,93,0.00,,,0.00,,2013-07-25 03:38:00,
2013-07-24 23:44:00,58.0,56.0,30.03,ESE,122,0.0,0.0,93,0.00,,,0.00,,2013-07-25 03:44:00,
2013-07-24 23:52:00,58.0,56.0,30.03,ESE,122,0.0,0.0,94,0.00,,,0.00,,2013-07-25 03:52:00,